Flag for Germany Weather past 2 weeks in Taunusstein, Hesse, Germany

Now
60 °F

Overcast.


Feels Like: 59 °F
Forecast: 47 / 63 °F
Wind: 8 mph from South

Location: Wiesbaden Airport

Current Time: Apr 25, 2015 at 3:28:23 PM

Latest Report: Apr 25, 2015 at 2:58 PM


Visibility: N/A

Pressure: 29.82 "Hg

Humidity: 74%

Dew point: 51 °F

Location of TaunussteinLocation

Historic Weather in Taunusstein — Graph

°F

Taunusstein temperature yesterday

Maximum temperature yesterday: 70 °F (at 4:58 PM)
Minimum temperature yesterday: 39 °F (at 5:58 AM)
Average temperature yesterday: 55 °F

Past Weeks' High & Low Weather Summary

 TemperatureHumidityPressure
High76 °F (Apr 15, 3:58 PM)93% (Apr 15, 5:58 AM)30.84 "Hg (Apr 15, 5:58 AM)
Low37 °F (Apr 14, 4:58 AM)23% (Apr 21, 2:58 PM)29.82 "Hg (Apr 25, 1:58 PM)
Average55 °F58%30.18 "Hg
* Reported Apr 10 1:58 PM — Apr 25 1:58 PM, Taunusstein, Weather by CustomWeather, © 2015

Note: Actual official high and low records may vary slightly from our data, if they occured in-between our weather recording intervals... More about our weather records

Advertising

Taunusstein weather history for previous 24 hours

 ConditionsComfort  
Time TempWeatherWind HumidityBarometerVisibility
1:58 PM
Sat, Apr 25
59 °FMostly cloudy.2 mph68%29.82 "HgN/A
12:58 PM58 °FPartly sunny.5 mph75%29.84 "HgN/A
11:58 AM54 °FOvercast.3 mph77%29.86 "HgN/A
10:58 AM54 °FLight rain. Overcast.3 mph76%29.87 "HgN/A
10:03 AM54 °FLight rain. Overcast.3 mph72%29.85 "HgN/A
9:58 AM53 °FOvercast.3 mph74%29.85 "HgN/A
9:04 AM52 °FBroken clouds.2 mph77%29.84 "HgN/A
8:58 AM51 °FScattered clouds.3 mph79%29.84 "HgN/A
7:58 AM50 °FSunny.3 mph76%29.83 "HgN/A
7:00 AM48 °FPassing clouds.No wind76%29.83 "HgN/A
6:58 AM47 °FPassing clouds.No wind82%29.83 "HgN/A
5:58 AM46 °FClear.1 mph82%29.82 "HgN/A
4:58 AM46 °FClear.No wind82%29.83 "HgN/A
3:58 AM45 °FClear.No wind81%29.84 "HgN/A
2:58 AM45 °FClear.No wind81%29.85 "HgN/A
12:58 AM48 °FClear.No wind76%29.88 "HgN/A
11:58 PM
Fri, Apr 24
50 °FClear.2 mph71%29.87 "HgN/A
10:58 PM53 °FClear.2 mph67%29.88 "HgN/A
9:58 PM59 °FClear.3 mph55%29.87 "HgN/A
8:58 PM63 °FSunny.No wind47%29.86 "HgN/A
7:58 PM64 °FSunny.6 mph47%29.87 "HgN/A
6:58 PM67 °FSunny.8 mph42%29.88 "HgN/A
5:58 PM69 °FSunny.9 mph37%29.88 "HgN/A
4:58 PM70 °FSunny.5 mph35%29.90 "HgN/A
3:58 PM69 °FSunny.7 mph36%29.92 "HgN/A
Weather by CustomWeather, © 2015

See weather overviewHow to use our weather pages